SCP
0 0 0 0 0 0 0 0 0 0 0 0 0 0 0 0 0 0 0 0 0 0
0 0 0 0 0 0 0 0 0 0 0 0 0 0 0 0 0 0 0 0 0 0
0 0 0 0 0 0 0 0 0 0 0 0 0 0 0 0 0 0 0 0 0 0
0 0 0 0 0 0 0 0 0 0 0 0 0 0 0 0 0 0 0 0 0 0
0 0 0 0 0 0 0 0 0 0 0 0 0 0 0 0 0 0 0 0 0 0
0 0 0 0 0 0 0 0 0 0 0 0 0 0 0 0 0 0 0 0 0 0
0 0 0 0 0 0 0 0 0 0 0 0 0 0 0 0 0 0 0 0 0 0
0 0 0 0 0 0 0 0 0 0 0 0 0 0 0 0 0 0 0 0 0 0
0 0 0 0 0 0 0 0 0 0 0 0 0 0 0 0 0 0 0 0 0 0
0 0 0 0 0 0 0 0 0 0 0 0 0 0 0 0 0 0 0 0 0 0
0 0 0 0 0 0 0 0 0 0 0 0 0 0 0 0 0 0 0 0 0 0
0 0 0 0 0 0 0 0 0 0 0 0 0 0 0 0 0 0 0 0 0 0
0 0 0 0 0 0 0 0 0 0 0 0 0 0 0 0 0 0 0 0 0 0
0 0 0 0 0 0 0 0 0 0 0 0 0 0 -0 0 0 0 0 0 0 0
Wind_Speed_500mb
32 25 25 25 23 20 16 11 6 1 5 8 11 13 16 20 25 30 34 38 41 46
31 25 24 24 22 19 15 12 9 5 5 8 13 18 24 28 32 35 38 41 44 48
38 34 31 29 25 20 16 12 6 3 8 15 22 26 31 34 37 40 41 47 52 53
42 36 32 28 24 18 11 5 5 11 17 23 28 33 36 39 42 46 50 53 60 63
41 36 30 23 18 11 4 6 13 20 25 29 32 38 44 49 52 57 61 65 68 71
37 30 22 16 10 5 7 14 20 25 28 33 38 43 47 53 57 61 64 69 73 77
32 24 16 8 3 6 13 19 23 27 30 34 39 45 51 58 63 67 70 73 76 79
25 17 10 2 8 14 18 20 23 26 31 37 43 51 58 63 68 73 78 79 81 83
20 11 4 6 12 14 16 19 23 30 36 41 47 54 59 68 76 79 82 86 87 89
16 7 2 9 11 13 16 21 28 35 42 47 54 61 67 71 75 79 82 85 88 91
12 4 6 9 12 15 21 28 34 41 50 56 59 63 67 70 75 79 81 83 86 88
8 5 6 9 13 20 26 32 41 48 51 56 58 63 67 72 76 80 82 82 83 83
8 7 8 11 15 23 32 39 43 46 51 54 57 60 66 70 74 80 84 84 80 77
10 10 11 13 20 28 35 39 44 47 50 55 60 65 69 73 76 77 81 81 76 70
Wind_Direction_500mb
198 194 187 193 205 210 202 178 193 242 335 338 342 342 337 331 326 323 319 318 316 315
209 192 169 155 147 150 142 131 122 94 39 352 334 327 325 323 321 322 321 319 318 317
150 148 144 138 137 133 128 121 105 27 337 331 328 325 322 321 320 320 322 321 320 321
143 141 139 141 136 133 120 89 4 337 331 326 324 323 323 324 325 325 326 325 323 323
145 145 146 142 133 118 89 353 337 332 329 329 329 328 327 328 327 327 327 326 323 322
146 145 142 134 121 79 358 337 333 332 331 331 332 331 329 328 327 326 326 325 324 323
149 149 146 136 83 352 335 335 336 334 336 340 338 332 329 326 326 325 324 324 324 323
155 149 137 78 344 342 341 340 341 343 344 341 336 330 327 325 326 326 325 326 326 326
160 152 123 341 336 331 336 346 347 342 340 337 333 330 328 326 326 325 325 327 329 329
164 167 296 307 315 333 345 349 344 339 335 335 330 326 325 324 323 323 325 325 326 327
176 226 306 319 330 343 343 341 339 335 332 330 331 330 329 327 325 322 321 322 323 324
202 281 305 308 321 331 332 333 331 333 334 332 333 330 328 324 322 322 321 321 319 319
227 263 278 297 316 324 327 330 331 333 332 332 334 332 329 326 324 321 321 319 317 317
231 245 263 296 314 319 323 327 330 332 333 333 332 332 330 327 323 321 318 317 316 317
Wind_Speed_850mb
32 25 25 25 23 20 16 11 6 1 5 8 11 13 16 20 25 30 34 38 41 46
31 25 24 24 22 19 15 12 9 5 5 8 13 18 24 28 32 35 38 41 44 48
38 34 31 29 25 20 16 12 6 3 8 15 22 26 31 34 37 40 41 47 52 53
42 36 32 28 24 18 11 5 5 11 17 23 28 33 36 39 42 46 50 53 60 63
41 36 30 23 18 11 4 6 13 20 25 29 32 38 44 49 52 57 61 65 68 71
37 30 22 16 10 5 7 14 20 25 28 33 38 43 47 53 57 61 64 69 73 77
32 24 16 8 3 6 13 19 23 27 30 34 39 45 51 58 63 67 70 73 76 79
25 17 10 2 8 14 18 20 23 26 31 37 43 51 58 63 68 73 78 79 81 83
20 11 4 6 12 14 16 19 23 30 36 41 47 54 59 68 76 79 82 86 87 89
16 7 2 9 11 13 16 21 28 35 42 47 54 61 67 71 75 79 82 85 88 91
12 4 6 9 12 15 21 28 34 41 50 56 59 63 67 70 75 79 81 83 86 88
8 5 6 9 13 20 26 32 41 48 51 56 58 63 67 72 76 80 82 82 83 83
8 7 8 11 15 23 32 39 43 46 51 54 57 60 66 70 74 80 84 84 80 77
10 10 11 13 20 28 35 39 44 47 50 55 60 65 69 73 76 77 81 81 76 70
Wind_Direction_850mb
198 194 187 193 205 210 202 178 193 242 335 338 342 342 337 331 326 323 319 318 316 315
209 192 169 155 147 150 142 131 122 94 39 352 334 327 325 323 321 322 321 319 318 317
150 148 144 138 137 133 128 121 105 27 337 331 328 325 322 321 320 320 322 321 320 321
143 141 139 141 136 133 120 89 4 337 331 326 324 323 323 324 325 325 326 325 323 323
145 145 146 142 133 118 89 353 337 332 329 329 329 328 327 328 327 327 327 326 323 322
146 145 142 134 121 79 358 337 333 332 331 331 332 331 329 328 327 326 326 325 324 323
149 149 146 136 83 352 335 335 336 334 336 340 338 332 329 326 326 325 324 324 324 323
155 149 137 78 344 342 341 340 341 343 344 341 336 330 327 325 326 326 325 326 326 326
160 152 123 341 336 331 336 346 347 342 340 337 333 330 328 326 326 325 325 327 329 329
164 167 296 307 315 333 345 349 344 339 335 335 330 326 325 324 323 323 325 325 326 327
176 226 306 319 330 343 343 341 339 335 332 330 331 330 329 327 325 322 321 322 323 324
202 281 305 308 321 331 332 333 331 333 334 332 333 330 328 324 322 322 321 321 319 319
227 263 278 297 316 324 327 330 331 333 332 332 334 332 329 326 324 321 321 319 317 317
231 245 263 296 314 319 323 327 330 332 333 333 332 332 330 327 323 321 318 317 316 317